Location: Forst
(46.9333°N, 15.4333°E)
Time: 19:45:32
(UTC+00:00)

Cosmos 773 Rocket - Pass Details

Date: 01 December 2020
Orbit: 746 x 776 km, 74.1° (Epoch: 27 January)

Event Time Altitude Azimuth Distance (km) Brightness Sun altitude
Rises 16:41:36 0° 207° (SSW) 3,226 7.9 -14.9°
Reaches altitude 10° 16:43:58 10° 210° (SSW) 2,308 7.1 -15.3°
Maximum altitude 16:49:12 69° 294° (WNW) 830 4.3 -16.1°
Drops below altitude 10° 16:54:30 10° 18° (NNE) 2,335 6.2 -17.0°
Enters shadow 16:54:50 - 19° (NNE) 2,466 6.3 -17.0°
